Location: Skalnate Pleso
(49.1889°N, 20.2450°E)
Time: 16:52:10
(UTC+01:00)

SL-4 R/B - Pass Details

Date: 19 November 2019
Orbit: 428 x 667 km, 51.6° (Epoch: 05 December)

Event Time Altitude Azimuth Distance (km) Brightness Sun altitude
Exits shadow 04:48:13 46° 255° (WSW) 894 2.6 -20.4°
Maximum altitude 04:49:14 57° 210° (SSW) 789 2.6 -20.2°
Drops below altitude 10° 04:53:57 10° 132° (SE) 2,074 5.7 -19.4°
Sets 04:56:18 0° 129° (SE) 2,969 6.8 -19.0°
